Terminal Aerodrome Forecast
Issued by NWS Sterling, VA

Current Version | Previous Version | Graphics & Text | Print | Product List | Glossary On
Versions: 1 2 3 4 5 6 7 8 9 10 11 12 13 14 15 16 17 18 19 20 21 22 23 24
000
FTUS41 KLWX 210521
TAFIAD
TAF
KIAD 210521Z 2106/2212 00000KT P6SM FEW045 SCT250
     FM210800 00000KT P6SM BKN040 BKN250
     FM211200 VRB03KT P6SM BKN030 BKN070
     FM211300 VRB03KT P6SM BKN040 BKN070
     FM220200 19005KT P6SM BKN025 BKN070=

USA.gov is the U.S. government's official web portal to all federal, state and local government web resources and services.